User: anonymous   Login
Location: Unspecified
(0.0000°N, 0.0000°E)
Time: 10:37:04
(UTC+00:00)
Language:

USA 257 - Orbit

View from above orbital plane
View from above orbital plane
View from above satellite
View from above satellite

Ground track
Ground track

The orbit data is extracted from the following two-line orbital elements,

1 40208U 14055A   18164.40931312 0.00000000  00000-0  00000-0 0    05
2 40208   0.1060 138.7180 0014320 217.8939 142.1061  1.00281499    09
Epoch (UTC): 13 June 2018 09:49:24
Eccentricity: 0.0014320
inclination: 0.1060°
perigee height: 35723 km
apogee height: 35844 km
right ascension of ascending node: 138.7180°
argument of perigee: 217.8939°
revolutions per day: 1.00281499
mean anomaly at epoch: 142.1061°
orbit number at epoch: 0

The dashed part of the orbit path shows where the satellite is in the earth's shadow,  

DLR